EW9837 Weather Reports


Display with metric or nautical units.
time (UTC)temp
F
wind
direction
speed
MPH
gust
MPH
rain 1hr
in
rain 24hr
in
rain mn
in
humidity
%
barometer
mb
20260902041532 59 348 4.0 12.0 0.00 0.00 0.00 69 1013.6
20260902040035 59 343 3.0 8.0 0.00 0.00 0.00 69 1013.4
20260902034607 59 335 4.0 10.0 0.00 0.00 0.00 68 1013.1
20260902033035 60 306 4.0 11.0 0.00 0.00 0.00 67 1013.1
20260902031537 60 325 9.0 18.0 0.00 0.00 0.00 67 1012.9
20260902030035 60 303 6.0 20.0 0.00 0.00 0.00 67 1013.0
20260902024536 60 309 5.0 13.0 0.00 0.00 0.00 67 1013.2
20260902023106 60 302 4.0 13.0 0.00 0.00 0.00 66 1012.9
20260902020035 61 316 4.0 13.0 0.00 0.00 0.00 64 1013.0
20260902014533 62 299 5.0 15.0 0.00 0.00 0.00 62 1012.8
20260902013033 63 294 5.0 18.0 0.00 0.00 0.00 61 1012.7
20260902010035 64 310 7.0 15.0 0.00 0.00 0.00 60 1012.5
20260902004538 65 325 7.0 17.0 0.00 0.00 0.00 60 1012.3
20260902003035 65 317 5.0 16.0 0.00 0.00 0.00 61 1012.1
20260902001537 65 324 9.0 19.0 0.00 0.00 0.00 59 1012.0
20260902000034 66 307 7.0 18.0 0.00 0.00 0.00 59 1012.1
20260901234607 66 305 6.0 16.0 0.00 0.00 0.00 59 1012.0
20260901231536 69 299 5.0 14.0 0.00 0.00 0.00 57 1011.9
20260901224538 69 277 8.0 21.0 0.00 0.00 0.00 58 1011.7
20260901223107 69 294 6.0 20.0 0.00 0.00 0.00 56 1011.6
20260901221647 71 290 7.0 15.0 0.00 0.00 0.00 56 1011.5
20260901220035 71 274 6.0 20.0 0.00 0.00 0.00 55 1011.2
20260901214536 72 273 7.0 19.0 0.00 0.00 0.00 55 1011.0
20260901213035 72 288 7.0 23.0 0.00 0.00 0.00 55 1011.1
20260901211533 71 310 6.0 18.0 0.00 0.00 0.00 55 1011.3
20260901210108 71 316 6.0 17.0 0.00 0.00 0.00 55 1011.4
20260901204644 70 309 7.0 18.0 0.00 0.00 0.00 55 1011.5
20260901203035 71 301 6.0 15.0 0.00 0.00 0.00 55 1011.5
20260901201535 70 316 6.0 22.0 0.00 0.00 0.00 58 1011.5
20260901200037 68 358 9.0 19.0 0.00 0.00 0.00 58 1011.7
20260901194533 69 347 11.0 19.0 0.00 0.00 0.00 56 1011.9
20260901190035 73 263 2.0 14.0 0.00 0.00 0.00 57 1012.8
20260901183035 71 222 1.0 4.0 0.00 0.00 0.00 59 1013.0
20260901181536 70 154 1.0 7.0 0.00 0.00 0.00 62 1013.2
20260901180040 67 95 2.0 4.0 0.00 0.00 0.00 67 1013.3
20260901174536 64 145 2.0 5.0 0.00 0.00 0.00 74 1013.3
20260901170143 59 135 0.0 3.0 0.00 0.00 0.00 84 1013.4
20260901164534 57 116 2.0 5.0 0.00 0.00 0.00 90 1013.4
20260901163037 56 142 1.0 4.0 0.00 0.00 0.00 97 1013.3
20260901161534 54 175 2.0 6.0 0.00 0.00 0.00 98 1013.3
20260901160035 52 178 2.0 5.0 0.00 0.00 0.00 97 1013.1
20260901154534 51 180 2.0 4.0 0.00 0.00 0.00 97 1013.0
20260901153036 50 165 1.0 4.0 0.00 0.00 0.00 97 1013.0
20260901151645 49 171 2.0 5.0 0.00 0.00 0.00 97 1013.0
20260901150036 48 164 3.0 5.0 0.00 0.00 0.00 97 1012.9
20260901144535 47 174 3.0 4.0 0.00 0.00 0.00 97 1012.7
20260901143030 47 162 3.0 5.0 0.00 0.00 0.00 97 1012.6
20260901140037 46 145 3.0 4.0 0.00 0.00 0.00 97 1012.4
20260901133029 45 154 3.0 5.0 0.00 0.00 0.00 96 1012.1
20260901130035 45 162 3.0 4.0 0.00 0.00 0.00 96 1012.0
20260901124534 45 174 3.0 4.0 0.00 0.00 0.00 96 1011.8
20260901121535 45 179 3.0 4.0 0.00 0.00 0.00 96 1011.8
20260901114533 46 180 1.0 2.0 0.00 0.00 0.00 96 1011.8
20260901113032 46 180 2.0 3.0 0.00 0.00 0.00 95 1011.7
20260901111536 46 180 2.0 4.0 0.00 0.00 0.00 95 1011.7
20260901110153 47 180 2.0 4.0 0.00 0.00 0.00 95 1011.8
20260901104609 47 180 3.0 4.0 0.00 0.00 0.00 95 1011.8
20260901103036 47 180 3.0 5.0 0.00 0.00 0.00 95 1011.9
20260901101650 47 150 2.0 4.0 0.00 0.00 0.00 95 1011.9
20260901100033 47 179 2.0 3.0 0.00 0.00 0.00 95 1011.9
20260901094532 48 162 2.0 3.0 0.00 0.00 0.00 95 1011.9
20260901093032 48 166 2.0 4.0 0.00 0.00 0.00 95 1011.9
20260901091536 48 183 2.0 4.0 0.00 0.00 0.00 95 1011.9
20260901090036 48 164 3.0 6.0 0.00 0.00 0.00 95 1011.7
20260901083036 48 191 3.0 5.0 0.00 0.00 0.00 94 1012.0
20260901081537 48 178 3.0 4.0 0.00 0.00 0.00 94 1012.0
20260901080034 48 158 3.0 4.0 0.00 0.00 0.00 94 1011.9
20260901074536 48 201 2.0 3.0 0.00 0.00 0.00 93 1011.9
20260901073037 48 166 2.0 5.0 0.00 0.00 0.00 93 1011.8
20260901064533 49 164 2.0 3.0 0.00 0.00 0.00 92 1011.9
20260901061536 50 148 3.0 4.0 0.00 0.00 0.00 91 1012.2
20260901060032 51 157 2.0 4.0 0.00 0.00 0.00 91 1012.3
20260901054652 51 176 3.0 4.0 0.00 0.00 0.00 90 1012.3
20260901053037 51 146 2.0 4.0 0.00 0.00 0.00 89 1012.3
20260901051536 52 168 3.0 4.0 0.00 0.00 0.00 88 1012.2
20260901050038 52 165 3.0 4.0 0.00 0.00 0.00 87 1012.4
20260901044611 53 157 3.0 5.0 0.00 0.00 0.00 86 1012.3